YBCS

Cairns Airport

Airport
ICAO code
YBCS
IATA Code
CNS
Summary
ICAO Region
APAC
ICAO Territory
Location

Cairns, Queensland

Serving
Cairns
Elevation
10 ft
Coordinates
16° 52' 36" S , 145° 45' 15" E
KCC
Metar
Observation
YBCS 312030Z AUTO 08002KT 9999 // NCD 26/24 Q1005 RF00.0/000.8
Station
Cairns Airport
Date/Time
2023-01-31 20:30:00
Wind direction
80°
Wind speed
02 kts
Lowest cloud amount
no clouds detected
Temperature
26°C
Dew point
24°C
Humidity
88%
QNH
1005 hPa
Weather condition
n/a

Description

Cairns Airport is an international airport in Cairns, Queensland, Australia.

Climatology

Humid “subtropical” climate (Köppen climate classification Cfa) - characterized by hot, humid summers and cool winters. Significant amounts of precipitation occur in all seasons in most areas. Most summer rainfall occurs during thunderstorms and occasional tropical storms.

Airport map

Aerial View

SKYbrary Partners:

Safety knowledge contributed by: